Notices

What's New in latest Release from April 7th, 2021:

- Updated Glossary, including Speed of Maximum Gust, and Total Hourly Precipitation

- Updated national and regional climate services offices contacts and prices information

- Addition of station inventory lists for 1981-2010, 1971-2000, and 1961-1990 Normals.

If you haven't already, please take our survey and provide feedback about our website: https://eccc.sondage-survey.ca/f/LanguageSelection.aspx?s=442ca660-fcf1-47c0-95a9-59707d6fd709

Hourly Data Report for October 29, 2006

TORONTO CITY
ONTARIO

43°40'00.000" N
79°24'00.000" W
112.50 m
6158355
71508
XTO

Download Data

Hourly Data (October 2006)
Hourly Data Report for October 29, 2006
TIME
LST
Temp Definition
°C
Dew Point Definition
°C
Rel Hum Definition
%
Precip. Amount Definition
mm

Wind Dir Definition
10's deg

Wind Spd Definition
km/h
Visibility Definition
km
Stn Press Definition
kPa
Hmdx Definition


Wind Chill Definition


Weather Definition


00:00 4.6 1.9 83   LegendMM LegendMM   97.60     LegendNANA
01:00 3.8 1.8 87   LegendMM LegendMM   97.68     LegendNANA
02:00 3.2 2.2 93   LegendMM LegendMM   97.78     LegendNANA
03:00 3.4 1.9 90   LegendMM LegendMM   97.84     LegendNANA
04:00 4.6 -0.4 70   LegendMM LegendMM   97.89     LegendNANA
05:00 5.0 -1.1 65   LegendMM LegendMM   97.98     LegendNANA
06:00 4.7 -2.0 62   LegendMM LegendMM   98.09     LegendNANA
07:00 4.2 -0.5 71   LegendMM LegendMM   98.22     LegendNANA
08:00 4.1 1.1 81   LegendMM LegendMM   98.32     LegendNANA
09:00 5.1 -0.3 68   LegendMM LegendMM   98.39     LegendNANA
10:00 6.7 -1.0 58   LegendMM LegendMM   98.48     LegendNANA
11:00 7.2 -1.9 52   LegendMM LegendMM   98.61     LegendNANA
12:00 7.9 -2.6 47   LegendMM LegendMM   98.67     LegendNANA
13:00 7.4 -2.2 51   LegendMM LegendMM   98.82     LegendNANA
14:00 6.8 -2.3 52   LegendMM LegendMM   98.93     LegendNANA
15:00 7.0 -1.2 56   LegendMM LegendMM   99.08     LegendNANA
16:00 7.1 -1.1 56   LegendMM LegendMM   99.19     LegendNANA
17:00 7.2 -2.0 52   LegendMM LegendMM   99.32     LegendNANA
18:00 6.8 -1.1 57   LegendMM LegendMM   99.44     LegendNANA
19:00 6.0 -1.0 61   LegendMM LegendMM   99.55     LegendNANA
20:00 5.6 -0.9 63   LegendMM LegendMM   99.62     LegendNANA
21:00 5.4 -0.6 65   LegendMM LegendMM   99.68     LegendNANA
22:00 4.8 -0.6 68   LegendMM LegendMM   99.72     LegendNANA
23:00 4.7 -0.4 69   LegendMM LegendMM   99.75     LegendNANA

Notes on Data Quality.

Legend

  • E = Estimated
  • M = Missing
  • NA = Not Available*
  • [empty] = Indicates an unobserved value
Date modified: